FIN5VP EFHK-LCLK

Flight info

Callsign FIN5VP
Flight time N/A
Altitude 32000
Route KOIVU DCT LARTI DCT NAVOT DCT LUTAL DCT BERIL DCT BOKSU DCT TOXAR DCT ROBTU DCT KENIN DCT ARGES DCT RIXEN UG1 IST UT35 AYT UA16 TOMBI M855 DASNI M601 BONEK
Aircraft A321/M-SDE3FGHIRWY/LB1

Departure

Time N/A
Airport Helsinki Vantaa Airport (EFHK)

Arrival

Time 2026-05-07 18:08
Airport Larnaca International Airport (LCLK)
Time Latitude Longitude Altitude Speed Heading
2026-05-07 16:02 47.36964 23.15561 34027 ft 460 kts 145°
2026-05-07 16:02 47.32013 23.21535 34029 ft 460 kts 145°
2026-05-07 16:03 47.27012 23.27543 34026 ft 460 kts 145°
2026-05-07 16:03 47.22079 23.33464 34024 ft 461 kts 145°
2026-05-07 16:04 47.17106 23.39420 34030 ft 461 kts 145°
2026-05-07 16:04 47.12086 23.45406 34036 ft 462 kts 145°
2026-05-07 16:05 47.07084 23.51352 34030 ft 463 kts 145°
2026-05-07 16:05 47.02084 23.57290 34037 ft 463 kts 145°
2026-05-07 16:06 46.97064 23.63248 34047 ft 465 kts 145°
2026-05-07 16:06 46.92038 23.69195 34049 ft 465 kts 145°
2026-05-07 16:07 46.87002 23.75121 34046 ft 465 kts 145°
2026-05-07 16:07 46.81962 23.81040 34047 ft 465 kts 145°
2026-05-07 16:08 46.76919 23.86960 34046 ft 465 kts 145°
2026-05-07 16:08 46.71869 23.92869 34048 ft 465 kts 145°
2026-05-07 16:09 46.66817 23.98759 34045 ft 466 kts 145°
2026-05-07 16:09 46.61764 24.04655 34038 ft 466 kts 145°
2026-05-07 16:10 46.56690 24.10544 34017 ft 467 kts 145°
2026-05-07 16:10 46.51610 24.16429 34019 ft 468 kts 145°
2026-05-07 16:11 46.46517 24.22315 34025 ft 468 kts 145°
2026-05-07 16:11 46.41387 24.28236 34018 ft 468 kts 145°
2026-05-07 16:12 46.36288 24.34098 34027 ft 468 kts 145°
2026-05-07 16:12 46.31190 24.39937 34022 ft 468 kts 145°
2026-05-07 16:13 46.26084 24.45780 34016 ft 468 kts 145°
2026-05-07 16:13 46.20971 24.51612 34020 ft 468 kts 145°
2026-05-07 16:14 46.15861 24.57431 34019 ft 468 kts 145°
2026-05-07 16:14 46.10737 24.63253 34016 ft 469 kts 145°
2026-05-07 16:15 46.05610 24.69069 34025 ft 469 kts 145°
2026-05-07 16:15 46.00485 24.74869 34018 ft 469 kts 145°
2026-05-07 16:16 45.95346 24.80662 34013 ft 469 kts 145°
2026-05-07 16:16 45.90200 24.86450 34020 ft 470 kts 144°
2026-05-07 16:17 45.85889 24.91290 34021 ft 470 kts 144°
2026-05-07 16:17 45.80730 24.97061 34014 ft 470 kts 144°
2026-05-07 16:18 45.75564 25.02833 34019 ft 471 kts 144°
2026-05-07 16:18 45.70393 25.08595 34025 ft 472 kts 144°
2026-05-07 16:19 45.65212 25.14362 34022 ft 472 kts 144°
2026-05-07 16:19 45.60019 25.20123 34025 ft 473 kts 144°
2026-05-07 16:20 45.54816 25.25874 34030 ft 473 kts 144°
2026-05-07 16:20 45.49607 25.31626 34046 ft 474 kts 144°
2026-05-07 16:21 45.44393 25.37370 34046 ft 474 kts 144°
2026-05-07 16:21 45.39166 25.43115 34042 ft 474 kts 144°
2026-05-07 16:22 45.33937 25.48848 34031 ft 475 kts 144°
2026-05-07 16:22 45.28710 25.54568 34036 ft 475 kts 144°
2026-05-07 16:23 45.23471 25.60288 34046 ft 475 kts 144°
2026-05-07 16:23 45.18222 25.65990 34044 ft 475 kts 144°
2026-05-07 16:24 45.12974 25.71686 34046 ft 475 kts 144°
2026-05-07 16:24 45.07686 25.77410 34032 ft 475 kts 144°
2026-05-07 16:25 45.02423 25.83083 34044 ft 476 kts 144°
2026-05-07 16:25 44.97166 25.88751 34033 ft 476 kts 144°
2026-05-07 16:26 44.91889 25.94434 34045 ft 477 kts 144°
2026-05-07 16:26 44.86616 26.00110 34043 ft 477 kts 144°
2026-05-07 16:27 44.81325 26.05774 34031 ft 479 kts 144°
2026-05-07 16:27 44.76009 26.11445 34023 ft 480 kts 144°
2026-05-07 16:28 44.70679 26.17112 34027 ft 481 kts 144°
2026-05-07 16:28 44.65333 26.22788 34034 ft 482 kts 144°
2026-05-07 16:29 44.59979 26.28468 34045 ft 482 kts 144°
2026-05-07 16:29 44.54629 26.34134 34048 ft 482 kts 144°
2026-05-07 16:30 44.49271 26.39796 34047 ft 482 kts 144°
2026-05-07 16:30 44.43910 26.45430 34048 ft 482 kts 144°
2026-05-07 16:31 44.38541 26.51058 34049 ft 482 kts 144°
2026-05-07 16:31 44.33135 26.56725 34051 ft 482 kts 144°
2026-05-07 16:32 44.27764 26.62331 34051 ft 482 kts 144°
2026-05-07 16:32 44.22385 26.67944 34055 ft 483 kts 144°
2026-05-07 16:33 44.17011 26.73546 34056 ft 483 kts 144°
2026-05-07 16:33 44.11620 26.79147 34061 ft 483 kts 144°
2026-05-07 16:34 44.06217 26.84713 34068 ft 483 kts 144°
2026-05-07 16:34 44.00780 26.90209 34067 ft 483 kts 145°
2026-05-07 16:35 43.95325 26.95660 34067 ft 484 kts 145°
2026-05-07 16:35 43.89863 27.01131 34067 ft 484 kts 144°
2026-05-07 16:36 43.84398 27.06609 34070 ft 485 kts 144°
2026-05-07 16:36 43.78926 27.12077 34071 ft 486 kts 144°
2026-05-07 16:37 43.73441 27.17555 34080 ft 486 kts 144°
2026-05-07 16:37 43.67941 27.23025 34091 ft 487 kts 144°
2026-05-07 16:38 43.62435 27.28491 34096 ft 487 kts 144°
2026-05-07 16:38 43.56921 27.33940 34099 ft 488 kts 145°
2026-05-07 16:39 43.51397 27.39382 34104 ft 488 kts 145°
2026-05-07 16:39 43.45879 27.44821 34109 ft 488 kts 144°
2026-05-07 16:40 43.40354 27.50257 34113 ft 488 kts 144°
2026-05-07 16:40 43.34802 27.55717 34115 ft 488 kts 144°
2026-05-07 16:41 43.29271 27.61135 34116 ft 488 kts 145°
2026-05-07 16:41 43.23736 27.66527 34118 ft 488 kts 145°
2026-05-07 16:42 43.18198 27.71920 34117 ft 488 kts 145°
2026-05-07 16:42 43.12662 27.77309 34120 ft 489 kts 145°
2026-05-07 16:43 43.07113 27.82683 34120 ft 489 kts 145°
2026-05-07 16:43 43.01568 27.88047 34121 ft 489 kts 145°
2026-05-07 16:44 42.96017 27.93412 34116 ft 489 kts 145°
2026-05-07 16:44 42.90464 27.98767 34118 ft 489 kts 145°
2026-05-07 16:45 42.84898 28.04111 34114 ft 489 kts 145°
2026-05-07 16:45 42.79323 28.09455 34108 ft 490 kts 145°
2026-05-07 16:46 42.73744 28.14790 34108 ft 491 kts 145°
2026-05-07 16:46 42.68148 28.20123 34111 ft 491 kts 145°
2026-05-07 16:47 42.62554 28.25458 34114 ft 491 kts 145°
2026-05-07 16:47 42.56960 28.30777 34116 ft 492 kts 145°
2026-05-07 16:48 42.51352 28.36097 34120 ft 492 kts 145°
2026-05-07 16:48 42.45706 28.41439 34121 ft 492 kts 145°
2026-05-07 16:49 42.40100 28.46726 34118 ft 491 kts 145°
2026-05-07 16:49 42.35433 28.51121 34115 ft 491 kts 145°
2026-05-07 16:50 42.29827 28.56396 34112 ft 491 kts 145°
2026-05-07 16:50 42.24215 28.61667 34110 ft 491 kts 145°
2026-05-07 16:51 42.18597 28.66918 34110 ft 491 kts 146°
2026-05-07 16:51 42.12967 28.72137 34108 ft 491 kts 149°
2026-05-07 16:52 42.06751 28.75805 34104 ft 487 kts 167°
2026-05-07 16:52 42.00080 28.76931 34102 ft 482 kts 181°
2026-05-07 16:53 41.93331 28.77175 34097 ft 483 kts 181°
2026-05-07 16:53 41.86614 28.77429 34099 ft 483 kts 181°
2026-05-07 16:54 41.79899 28.77700 34092 ft 483 kts 181°
2026-05-07 16:54 41.73189 28.77972 34093 ft 483 kts 181°
2026-05-07 16:55 41.66471 28.78246 34096 ft 483 kts 181°
2026-05-07 16:55 41.59754 28.78517 34097 ft 483 kts 181°
2026-05-07 16:56 41.53044 28.78776 34096 ft 483 kts 181°
2026-05-07 16:56 41.42967 28.79160 34091 ft 483 kts 181°
2026-05-07 16:57 41.36240 28.79421 34096 ft 483 kts 181°
2026-05-07 16:57 41.29515 28.79675 34092 ft 483 kts 181°
2026-05-07 16:58 41.22796 28.79939 34091 ft 483 kts 181°
2026-05-07 16:58 41.16070 28.80209 34097 ft 483 kts 181°
2026-05-07 16:59 41.09353 28.80505 34099 ft 483 kts 181°
2026-05-07 16:59 41.02630 28.80795 34105 ft 483 kts 181°
2026-05-07 17:00 40.95929 28.81631 34110 ft 488 kts 169°
2026-05-07 17:00 40.89525 28.84682 34110 ft 491 kts 159°
2026-05-07 17:01 40.83177 28.88165 34110 ft 491 kts 159°
2026-05-07 17:01 40.76853 28.91603 34113 ft 491 kts 159°
2026-05-07 17:02 40.70527 28.95024 34115 ft 492 kts 160°
2026-05-07 17:02 40.64194 28.98453 34113 ft 492 kts 159°
2026-05-07 17:03 40.57858 29.01891 34115 ft 493 kts 159°
2026-05-07 17:03 40.51523 29.05312 34113 ft 493 kts 160°
2026-05-07 17:04 40.45177 29.08733 34113 ft 493 kts 159°
2026-05-07 17:04 40.38827 29.12157 34116 ft 494 kts 160°
2026-05-07 17:05 40.32471 29.15566 34115 ft 494 kts 160°
2026-05-07 17:05 40.26096 29.18980 34115 ft 494 kts 160°
2026-05-07 17:06 40.19731 29.22386 34116 ft 495 kts 160°
2026-05-07 17:06 40.13351 29.25790 34117 ft 495 kts 160°
2026-05-07 17:07 40.06970 29.29185 34119 ft 496 kts 160°
2026-05-07 17:07 40.00536 29.32604 34116 ft 496 kts 160°
2026-05-07 17:08 39.94136 29.35993 34115 ft 497 kts 160°
2026-05-07 17:08 39.87735 29.39390 34116 ft 497 kts 159°
2026-05-07 17:09 39.81354 29.42893 34118 ft 498 kts 159°
2026-05-07 17:09 39.74979 29.46444 34120 ft 498 kts 159°
2026-05-07 17:10 39.68598 29.49971 34124 ft 499 kts 159°
2026-05-07 17:10 39.62191 29.53453 34130 ft 499 kts 160°
2026-05-07 17:11 39.55722 29.56730 34137 ft 499 kts 161°
2026-05-07 17:11 39.49230 29.59883 34147 ft 499 kts 162°
2026-05-07 17:12 39.42733 29.63063 34159 ft 499 kts 161°
2026-05-07 17:12 39.36254 29.66280 34168 ft 499 kts 161°
2026-05-07 17:13 39.29768 29.69508 34173 ft 499 kts 161°
2026-05-07 17:13 39.23280 29.72728 34179 ft 499 kts 161°
2026-05-07 17:14 39.16788 29.75942 34186 ft 500 kts 161°
2026-05-07 17:14 39.10304 29.79146 34188 ft 499 kts 161°
2026-05-07 17:15 39.03813 29.82347 34189 ft 499 kts 161°
2026-05-07 17:15 38.97322 29.85538 34192 ft 499 kts 161°
2026-05-07 17:16 38.90791 29.88738 34198 ft 499 kts 161°
2026-05-07 17:16 38.84286 29.91883 34197 ft 499 kts 162°
2026-05-07 17:17 38.77760 29.94965 34197 ft 500 kts 162°
2026-05-07 17:17 38.71237 29.98039 34195 ft 500 kts 162°
2026-05-07 17:18 38.64703 30.01130 34195 ft 501 kts 162°
2026-05-07 17:18 38.58171 30.04229 34194 ft 501 kts 161°
2026-05-07 17:19 38.51632 30.07328 34197 ft 502 kts 161°
2026-05-07 17:19 38.45082 30.10420 34202 ft 502 kts 162°
2026-05-07 17:20 38.38522 30.13496 34200 ft 502 kts 162°
2026-05-07 17:20 38.31956 30.16563 34197 ft 502 kts 162°
2026-05-07 17:21 38.25380 30.19583 34201 ft 503 kts 162°
2026-05-07 17:21 38.18792 30.22593 34210 ft 503 kts 162°
2026-05-07 17:22 38.12214 30.25618 34202 ft 503 kts 162°
2026-05-07 17:22 38.05627 30.28638 34214 ft 503 kts 162°
2026-05-07 17:23 37.99034 30.31639 34199 ft 503 kts 162°
2026-05-07 17:23 37.93515 30.34146 34203 ft 503 kts 162°
2026-05-07 17:24 37.86916 30.37130 34212 ft 503 kts 162°
2026-05-07 17:24 37.80335 30.40096 34219 ft 503 kts 162°
2026-05-07 17:25 37.73738 30.43067 34217 ft 503 kts 162°
2026-05-07 17:25 37.67153 30.46037 34222 ft 502 kts 162°
2026-05-07 17:26 37.60573 30.48988 34203 ft 502 kts 162°
2026-05-07 17:26 37.53987 30.51946 34200 ft 502 kts 162°
2026-05-07 17:27 37.47411 30.54899 34196 ft 502 kts 162°
2026-05-07 17:27 37.40829 30.57838 34191 ft 502 kts 162°
2026-05-07 17:28 37.34199 30.60789 34183 ft 502 kts 163°
2026-05-07 17:28 37.27622 30.63713 34173 ft 502 kts 163°
2026-05-07 17:29 37.21029 30.66639 34166 ft 502 kts 163°
2026-05-07 17:29 37.14443 30.69566 34158 ft 502 kts 163°
2026-05-07 17:30 37.07866 30.72478 34149 ft 501 kts 163°
2026-05-07 17:30 37.01286 30.75380 34143 ft 501 kts 163°
2026-05-07 17:31 36.94697 30.78252 34136 ft 500 kts 166°
2026-05-07 17:31 36.87902 30.79598 34132 ft 491 kts 183°
2026-05-07 17:32 36.81072 30.79806 34132 ft 491 kts 182°
2026-05-07 17:32 36.74233 30.80044 34131 ft 492 kts 182°
2026-05-07 17:33 36.67400 30.80294 34130 ft 491 kts 182°
2026-05-07 17:33 36.60561 30.80538 34133 ft 491 kts 182°
2026-05-07 17:34 36.53721 30.80772 34136 ft 492 kts 182°
2026-05-07 17:34 36.46880 30.81009 34139 ft 492 kts 182°
2026-05-07 17:35 36.40049 30.81243 34141 ft 491 kts 182°
2026-05-07 17:35 36.33219 30.81467 34139 ft 491 kts 183°
2026-05-07 17:36 36.26347 30.81694 34138 ft 491 kts 182°
2026-05-07 17:36 36.19513 30.81922 34140 ft 491 kts 182°
2026-05-07 17:37 36.12678 30.82155 34139 ft 491 kts 182°
2026-05-07 17:37 36.05844 30.82381 34141 ft 491 kts 183°
2026-05-07 17:38 35.99014 30.82668 34141 ft 492 kts 181°
2026-05-07 17:38 35.92172 30.83120 34140 ft 492 kts 181°
2026-05-07 17:39 35.85342 30.83587 34137 ft 492 kts 181°
2026-05-07 17:39 35.78496 30.83996 34140 ft 492 kts 181°
2026-05-07 17:40 35.71666 30.84491 34142 ft 495 kts 174°
2026-05-07 17:40 35.68314 30.85519 34145 ft 499 kts 161°
2026-05-07 17:40 35.65188 30.87399 34144 ft 502 kts 148°
2026-05-07 17:41 35.62458 30.90067 34141 ft 502 kts 134°
2026-05-07 17:41 35.60259 30.93370 34138 ft 500 kts 121°
2026-05-07 17:41 35.58664 30.97137 34135 ft 496 kts 108°
2026-05-07 17:41 35.57588 31.01145 34134 ft 494 kts 104°
2026-05-07 17:42 35.55536 31.09204 34137 ft 494 kts 104°
2026-05-07 17:42 35.53483 31.17267 34140 ft 495 kts 104°
2026-05-07 17:43 35.51420 31.25323 34148 ft 495 kts 105°
2026-05-07 17:43 35.49342 31.33438 34152 ft 495 kts 105°
2026-05-07 17:44 35.47273 31.41495 34147 ft 495 kts 105°
2026-05-07 17:44 35.45201 31.49536 34148 ft 495 kts 105°
2026-05-07 17:45 35.43123 31.57579 34145 ft 494 kts 105°
2026-05-07 17:45 35.42085 31.61593 33962 ft 493 kts 105°
2026-05-07 17:45 35.41047 31.65596 33704 ft 492 kts 105°
2026-05-07 17:46 35.40009 31.69595 33456 ft 492 kts 105°
2026-05-07 17:46 35.38969 31.73590 33208 ft 493 kts 105°
2026-05-07 17:46 35.37922 31.77592 32957 ft 493 kts 105°
2026-05-07 17:46 35.36872 31.81597 32699 ft 494 kts 105°
2026-05-07 17:47 35.35821 31.85608 32460 ft 494 kts 105°
2026-05-07 17:47 35.34773 31.89614 32217 ft 494 kts 105°
2026-05-07 17:47 35.33721 31.93630 31555 ft 498 kts 105°
2026-05-07 17:47 35.32654 31.97694 30491 ft 506 kts 105°
2026-05-07 17:48 35.31571 32.01820 29414 ft 512 kts 105°
2026-05-07 17:48 35.30472 32.05994 28422 ft 516 kts 106°
2026-05-07 17:48 35.29380 32.10140 27958 ft 508 kts 106°
2026-05-07 17:48 35.28304 32.14244 27297 ft 505 kts 105°
2026-05-07 17:49 35.27241 32.18321 26667 ft 501 kts 105°
2026-05-07 17:49 35.26185 32.22368 26031 ft 497 kts 105°
2026-05-07 17:49 35.25137 32.26375 25411 ft 492 kts 105°
2026-05-07 17:49 35.24095 32.30331 24796 ft 487 kts 106°
2026-05-07 17:50 35.23058 32.34259 24182 ft 483 kts 106°
2026-05-07 17:50 35.22031 32.38151 23572 ft 479 kts 105°
2026-05-07 17:50 35.21013 32.42007 22969 ft 474 kts 106°
2026-05-07 17:50 35.20005 32.45823 22376 ft 469 kts 106°
2026-05-07 17:51 35.19007 32.49597 21797 ft 464 kts 106°
2026-05-07 17:51 35.18019 32.53325 21239 ft 458 kts 106°
2026-05-07 17:51 35.17030 32.57057 20675 ft 452 kts 106°
2026-05-07 17:51 35.16079 32.60644 20148 ft 447 kts 106°
2026-05-07 17:52 35.15126 32.64241 19631 ft 442 kts 107°
2026-05-07 17:52 35.14173 32.67834 19123 ft 437 kts 107°
2026-05-07 17:52 35.13239 32.71348 18619 ft 433 kts 107°
2026-05-07 17:52 35.12309 32.74828 18127 ft 429 kts 107°
2026-05-07 17:53 35.11383 32.78277 17623 ft 426 kts 107°
2026-05-07 17:53 35.10463 32.81698 17114 ft 422 kts 107°
2026-05-07 17:53 35.09552 32.85080 16591 ft 418 kts 107°
2026-05-07 17:53 35.08643 32.88441 16066 ft 415 kts 107°
2026-05-07 17:54 35.07744 32.91773 15530 ft 412 kts 107°
2026-05-07 17:54 35.06851 32.95080 14996 ft 408 kts 107°
2026-05-07 17:54 35.05937 32.98347 14439 ft 405 kts 108°
2026-05-07 17:54 35.05010 33.01579 13902 ft 401 kts 108°
2026-05-07 17:55 35.04081 33.04773 13343 ft 397 kts 108°
2026-05-07 17:55 35.03158 33.07927 12786 ft 393 kts 109°
2026-05-07 17:55 35.02242 33.11058 12227 ft 389 kts 108°
2026-05-07 17:55 35.01341 33.14156 11673 ft 385 kts 108°
2026-05-07 17:56 35.00456 33.17215 11126 ft 381 kts 108°
2026-05-07 17:56 34.99878 33.19217 10857 ft 375 kts 108°
2026-05-07 17:56 34.99031 33.22154 10723 ft 359 kts 108°
2026-05-07 17:56 34.98217 33.24971 10598 ft 344 kts 108°
2026-05-07 17:57 34.97427 33.27701 10468 ft 331 kts 108°
2026-05-07 17:57 34.96688 33.30259 10342 ft 318 kts 108°
2026-05-07 17:57 34.95971 33.32734 10032 ft 302 kts 108°
2026-05-07 17:57 34.95279 33.35114 9489 ft 294 kts 108°
2026-05-07 17:58 34.94600 33.37446 9366 ft 292 kts 108°
2026-05-07 17:58 34.93909 33.39811 9055 ft 293 kts 108°
2026-05-07 17:58 34.93227 33.42152 8639 ft 293 kts 108°
2026-05-07 17:58 34.92550 33.44482 8281 ft 291 kts 108°
2026-05-07 17:59 34.91883 33.46781 7755 ft 284 kts 108°
2026-05-07 17:59 34.91226 33.49041 7355 ft 283 kts 108°
2026-05-07 17:59 34.90564 33.51310 6938 ft 286 kts 107°
2026-05-07 17:59 34.89901 33.53580 6590 ft 284 kts 108°
2026-05-07 18:00 34.89238 33.55841 6235 ft 282 kts 108°
2026-05-07 18:00 34.88581 33.58084 5708 ft 279 kts 108°
2026-05-07 18:00 34.87965 33.60273 5256 ft 265 kts 101°
2026-05-07 18:00 34.87746 33.62439 4887 ft 256 kts 86°
2026-05-07 18:01 34.87993 33.64530 4515 ft 243 kts 71°
2026-05-07 18:01 34.88587 33.66420 4182 ft 237 kts 65°
2026-05-07 18:01 34.89218 33.68264 3814 ft 234 kts 65°
2026-05-07 18:01 34.89832 33.70075 3571 ft 226 kts 65°
2026-05-07 18:02 34.90982 33.73494 3450 ft 216 kts 65°
2026-05-07 18:02 34.91551 33.75183 3364 ft 215 kts 65°
2026-05-07 18:02 34.92121 33.76874 3268 ft 215 kts 65°
2026-05-07 18:03 34.92795 33.78463 3179 ft 203 kts 48°
2026-05-07 18:03 34.93868 33.79424 3025 ft 185 kts 20°
2026-05-07 18:03 34.95077 33.79656 2889 ft 170 kts 356°
2026-05-07 18:03 34.96182 33.79276 2759 ft 165 kts 334°
2026-05-07 18:04 34.97057 33.78397 2571 ft 162 kts 309°
2026-05-07 18:04 34.97556 33.77172 2492 ft 162 kts 285°
2026-05-07 18:04 34.97614 33.75803 2408 ft 164 kts 262°
2026-05-07 18:04 34.97202 33.74506 2273 ft 166 kts 237°
2026-05-07 18:05 34.96418 33.73463 2100 ft 167 kts 227°
2026-05-07 18:05 34.95602 33.72467 1898 ft 165 kts 227°
2026-05-07 18:05 34.94785 33.71467 1707 ft 163 kts 227°
2026-05-07 18:05 34.93988 33.70492 1509 ft 162 kts 227°
2026-05-07 18:06 34.93205 33.69532 1317 ft 161 kts 227°
2026-05-07 18:06 34.92415 33.68563 1120 ft 157 kts 226°
2026-05-07 18:06 34.91672 33.67655 946 ft 148 kts 226°
2026-05-07 18:06 34.90953 33.66772 762 ft 146 kts 226°
2026-05-07 18:07 34.90243 33.65900 602 ft 145 kts 226°
2026-05-07 18:07 34.89533 33.65033 425 ft 144 kts 226°
2026-05-07 18:07 34.88824 33.64176 239 ft 143 kts 226°
2026-05-07 18:07 34.88125 33.63313 61 ft 143 kts 226°
2026-05-07 18:08 34.87482 33.62517 17 ft 112 kts 225°
2026-05-07 18:08 34.87052 33.61999 21 ft 62 kts 225°
2026-05-07 18:08 34.86825 33.61721 17 ft 41 kts 225°
2026-05-07 18:08 34.86665 33.61522 16 ft 27 kts 224°
2026-05-07 18:09 34.86619 33.61403 19 ft 13 kts 293°
2026-05-07 18:09 34.86683 33.61327 19 ft 13 kts 318°
2026-05-07 18:09 34.86709 33.61232 20 ft 13 kts 250°
2026-05-07 18:09 34.86654 33.61149 21 ft 13 kts 228°
2026-05-07 18:10 34.86637 33.61081 21 ft 3 kts 306°
2026-05-07 18:10 34.86639 33.61079 21 ft 0 kts 312°
2026-05-07 18:10 34.86640 33.61078 21 ft 1 kts 313°
2026-05-07 18:11 34.86649 33.61066 21 ft 3 kts 315°
2026-05-07 18:11 34.86661 33.61052 21 ft 4 kts 315°
2026-05-07 18:11 34.86686 33.61023 21 ft 3 kts 317°
2026-05-07 18:11 34.86708 33.60998 20 ft 7 kts 317°
2026-05-07 18:12 34.86744 33.60956 20 ft 8 kts 313°
2026-05-07 18:12 34.86769 33.60930 22 ft 1 kts 344°
2026-05-07 18:12 34.86778 33.60933 22 ft 3 kts 15°
2026-05-07 18:12 34.86797 33.60948 21 ft 4 kts 41°
2026-05-07 18:13 34.86820 33.60975 21 ft 5 kts 44°
2026-05-07 18:13 34.86831 33.60990 20 ft 2 kts 46°
2026-05-07 18:13 34.86837 33.60996 22 ft 0 kts 45°